TimeMDT,TemperatureF,Dew PointF,Humidity,Sea Level PressureIn,VisibilityMPH,Wind Direction,Wind SpeedMPH,Gust SpeedMPH,PrecipitationIn,Events,Conditions,WindDirDegrees,DateUTC
12:53 AM,68.0,46.9,47,29.89,10.0,Calm,Calm,-,N/A,,Clear,0,2013-09-03 06:53:00
1:53 AM,68.0,52.0,56,29.91,10.0,West,12.7,-,N/A,,Clear,280,2013-09-03 07:53:00
2:53 AM,64.0,51.1,63,29.93,10.0,WNW,13.8,-,N/A,,Clear,300,2013-09-03 08:53:00
3:53 AM,64.9,52.0,63,29.94,10.0,West,16.1,21.9,N/A,,Clear,270,2013-09-03 09:53:00
4:53 AM,68.0,52.0,56,29.94,10.0,West,15.0,24.2,N/A,,Clear,280,2013-09-03 10:53:00
5:24 AM,57.2,46.4,67,30.10,10.0,NW,16.1,-,N/A,,Clear,320,2013-09-03 11:24:00
5:53 AM,59.0,48.0,67,29.97,10.0,NW,13.8,-,N/A,,Clear,320,2013-09-03 11:53:00
6:53 AM,63.0,50.0,63,29.99,10.0,West,16.1,-,N/A,,Clear,280,2013-09-03 12:53:00
7:53 AM,62.1,48.9,62,30.00,10.0,WNW,15.0,25.3,N/A,,Clear,290,2013-09-03 13:53:00
8:53 AM,73.0,52.0,48,29.99,10.0,West,18.4,25.3,N/A,,Clear,260,2013-09-03 14:53:00
9:53 AM,78.1,51.1,39,29.97,10.0,WSW,18.4,-,N/A,,Clear,250,2013-09-03 15:53:00
10:53 AM,81.0,48.9,33,29.99,10.0,WSW,19.6,23.0,N/A,,Clear,240,2013-09-03 16:53:00
11:53 AM,84.9,48.0,28,29.96,10.0,WSW,17.3,21.9,N/A,,Clear,250,2013-09-03 17:53:00
12:53 PM,86.0,46.9,26,29.95,10.0,NW,8.1,-,N/A,,Clear,320,2013-09-03 18:53:00
1:53 PM,87.1,46.9,25,29.94,10.0,North,5.8,-,N/A,,Clear,350,2013-09-03 19:53:00
2:53 PM,91.0,44.1,20,29.91,10.0,NW,9.2,-,N/A,,Clear,310,2013-09-03 20:53:00
3:53 PM,91.0,41.0,17,29.90,10.0,Variable,3.5,-,N/A,,Clear,0,2013-09-03 21:53:00
4:53 PM,91.0,39.0,16,29.88,10.0,Calm,Calm,-,N/A,,Partly Cloudy,0,2013-09-03 22:53:00
5:53 PM,89.1,39.0,17,29.90,10.0,East,4.6,-,N/A,,Partly Cloudy,100,2013-09-03 23:53:00
6:53 PM,87.1,41.0,20,29.90,10.0,East,9.2,-,N/A,,Mostly Cloudy,80,2013-09-04 00:53:00
7:53 PM,82.9,42.1,24,29.91,10.0,East,6.9,-,N/A,,Mostly Cloudy,100,2013-09-04 01:53:00
8:39 PM,71.6,53.6,53,30.13,10.0,WSW,13.8,33.4,0.00,Rain,Light Rain,240,2013-09-04 02:39:00
8:53 PM,73.0,53.1,49,30.00,10.0,SSW,13.8,20.7,0.00,Rain,Light Rain,210,2013-09-04 02:53:00
9:27 PM,66.2,57.2,73,30.17,10.0,WSW,18.4,-,0.01,Rain,Light Rain,240,2013-09-04 03:27:00
9:53 PM,64.9,59.0,81,30.04,10.0,WSW,17.3,-,0.04,Rain,Light Rain,240,2013-09-04 03:53:00
10:53 PM,66.0,57.9,75,30.06,10.0,West,9.2,-,0.01,,Overcast,260,2013-09-04 04:53:00
11:53 PM,66.0,57.0,73,30.06,10.0,WSW,15.0,-,N/A,,Overcast,250,2013-09-04 05:53:00